Flag for Canada Weather past 2 weeks in Morden, Manitoba, Canada

Now
15 °F

Cold.


Feels Like: 3 °F
Forecast: -3 / 20 °F
Wind: 8 mph from Northwest

Location: Morden CDA CS

Current Time: Mar 3, 2015 at 6:13:55 AM

Latest Report: Mar 3, 2015 at 5:00 AM


Visibility: N/A

Pressure: 29.85 "Hg

Humidity: 70%

Dew point: 6 °F

Location of MordenLocation

Historic Weather in Morden — Graph

°F

Morden temperature yesterday

Maximum temperature yesterday: 31 °F (at 4:00 PM)
Minimum temperature yesterday: 0 °F (at 6:00 AM)
Average temperature yesterday: 17 °F

Past Weeks' High & Low Weather Summary

 TemperatureHumidityPressure
High33 °F (Feb 24, 12:00 AM)94% (Feb 24, 1:00 AM)30.86 "Hg (Feb 24, 1:00 AM)
Low-22 °F (Feb 22, 4:00 AM)49% (Feb 27, 2:00 PM)29.71 "Hg (Feb 23, 4:00 PM)
Average3 °F69%30.26 "Hg
* Reported Feb 16 5:00 AM — Mar 3 5:00 AM, Morden, Weather by CustomWeather, © 2015

Note: Actual official high and low records may vary slightly from our data, if they occured in-between our weather recording intervals... More about our weather records

Advertising

Morden weather history for previous 24 hours

 ConditionsComfort  
Time TempWeatherWind HumidityBarometerVisibility
5:00 AM
Tue, Mar 3
15 °FCold.8 mph70%29.85 "HgN/A
4:00 AM16 °FCold.14 mph71%29.84 "HgN/A
3:00 AM18 °FCold.10 mph79%29.82 "HgN/A
2:00 AM18 °FCold.15 mph76%29.80 "HgN/A
1:00 AM20 °FCold.15 mph76%29.77 "HgN/A
12:00 AM23 °FCold.13 mph75%29.75 "HgN/A
11:00 PM
Mon, Mar 2
23 °FCold.5 mph79%29.75 "HgN/A
10:00 PM26 °FChilly.10 mph72%29.75 "HgN/A
9:00 PM25 °FCold.10 mph76%29.77 "HgN/A
8:00 PM26 °FChilly.14 mph73%29.80 "HgN/A
7:00 PM26 °FChilly.14 mph72%29.83 "HgN/A
6:00 PM28 °FChilly.13 mph70%29.85 "HgN/A
5:00 PM28 °FChilly.16 mph68%29.90 "HgN/A
4:00 PM31 °FChilly.18 mph56%29.93 "HgN/A
3:00 PM28 °FChilly.20 mph61%29.96 "HgN/A
2:00 PM26 °FChilly.20 mph64%30.02 "HgN/A
1:00 PM25 °FChilly.17 mph59%30.09 "HgN/A
12:00 PM23 °FCold.13 mph62%30.15 "HgN/A
11:00 AM21 °FCold.10 mph62%30.20 "HgN/A
10:00 AM17 °FCold.9 mph68%30.24 "HgN/A
9:00 AM13 °FCold.9 mph70%30.27 "HgN/A
8:00 AM5 °FFrigid.5 mph86%30.29 "HgN/A
7:00 AM1 °FFrigid.5 mph87%30.31 "HgN/A
6:00 AM0 °FFrigid.6 mph86%30.34 "HgN/A
Weather by CustomWeather, © 2015

See weather overviewHow to use our weather pages